Location: New Town
(33.2710°N, 90.7534°W)
Time: 11:44:28
(UTC+00:00)

N. Korean satellite - Pass Details

Date: 27 April 2021
Orbit: 451 x 500 km, 97.2° (Epoch: 05 May)

Event Time Altitude Azimuth Distance (km) Brightness Sun altitude
Rises 10:23:49 0° 36° (NE) 2,509 11.4 -11.5°
Reaches altitude 10° 10:26:54 10° 66° (ENE) 1,615 10.8 -11.0°
Maximum altitude 10:28:28 13° 93° (E) 1,451 10.0 -10.7°
Drops below altitude 10° 10:30:03 10° 121° (ESE) 1,599 9.7 -10.4°
Sets 10:33:02 0° 151° (SSE) 2,458 10.2 -9.8°
